FW9416 Weather Reports


time (UTC)temp
C
wind
direction
speed
KPH
gust
KPH
rain 1hr
cm
rain 24hr
cm
rain mn
cm
humidity
%
barometer
mb
20260506081058 12 0.0 0.0 0.00 0.03 0.00 62 1011.7
20260506073037 13 193 0.0 1.6 0.00 0.13 0.00 58 1011.9
20260506072015 14 195 0.0 3.2 0.00 0.15 0.00 57 1011.9
20260506071040 14 0.0 0.0 0.00 0.15 0.00 57 1011.8
20260506062015 15 0.0 0.0 0.00 0.18 0.18 58 1012.0
20260506061015 15 175 0.0 0.0 0.00 0.20 0.18 58 1012.0
20260506051017 16 181 0.0 3.2 0.00 0.20 0.18 51 1011.7
20260506045015 16 0.0 0.0 0.00 0.20 0.18 49 1011.6
20260506044015 16 188 0.0 3.2 0.00 0.20 0.18 48 1011.4
20260506043015 16 265 3.2 8.0 0.00 0.20 0.18 47 1011.3
20260506042015 17 264 3.2 9.7 0.00 0.20 0.18 45 1011.3
20260506041016 17 239 1.6 4.8 0.00 0.20 0.18 43 1011.1
20260506040015 17 0.0 0.0 0.00 0.20 0.18 43 1011.1
20260506035015 17 244 0.0 3.2 0.00 0.20 0.18 42 1011.0
20260506034017 17 250 0.0 4.8 0.00 0.20 0.18 42 1010.8
20260506033015 17 0.0 0.0 0.00 0.20 0.18 40 1010.6
20260506032040 17 0.0 0.0 0.00 0.20 0.18 40 1010.4
20260506031015 18 274 3.2 9.7 0.00 0.20 0.18 39 1010.5
20260506030015 18 277 4.8 8.0 0.00 0.20 0.18 38 1010.4
20260506025040 18 273 4.8 9.7 0.00 0.20 0.18 38 1010.3
20260506024015 18 273 11.3 16.1 0.00 0.20 0.18 37 1010.1
20260506023015 19 261 6.4 14.5 0.00 0.20 0.18 36 1010.0
20260506022015 19 268 6.4 16.1 0.00 0.20 0.18 33 1009.8
20260506021015 19 261 6.4 12.9 0.00 0.20 0.18 31 1009.6
20260506020015 20 258 9.7 19.3 0.00 0.20 0.18 30 1009.4
20260506015015 20 249 9.7 22.5 0.00 0.20 0.18 29 1009.3
20260506014015 20 268 11.3 27.4 0.00 0.20 0.18 29 1009.4
20260506013017 21 244 8.0 19.3 0.00 0.20 0.18 32 1009.3
20260506012015 21 252 9.7 20.9 0.00 0.20 0.18 30 1009.2
20260506011015 21 249 11.3 29.0 0.00 0.20 0.18 29 1009.3
20260506010015 21 257 9.7 22.5 0.00 0.20 0.18 28 1009.2
20260506005017 22 251 9.7 20.9 0.00 0.20 0.18 27 1009.1
20260506004015 22 233 9.7 20.9 0.00 0.20 0.18 26 1009.1
20260506003015 22 248 11.3 24.1 0.00 0.20 0.18 25 1009.0
20260506002015 22 249 12.9 27.4 0.00 0.20 0.18 25 1009.0
20260506001015 22 254 11.3 32.2 0.00 0.20 0.18 24 1009.1
20260506000015 22 240 9.7 22.5 0.00 0.20 0.18 23 1009.0
20260505235116 22 213 11.3 22.5 0.00 0.20 0.18 21 1009.0
20260505234015 23 257 12.9 25.7 0.00 0.20 0.18 19 1008.9
20260505233035 23 244 12.9 33.8 0.00 0.20 0.18 22 1008.9
20260505232015 23 261 14.5 40.2 0.00 0.20 0.18 23 1008.8
20260505231015 23 241 12.9 35.4 0.00 0.20 0.18 27 1008.8
20260505230015 23 243 12.9 24.1 0.00 0.20 0.18 28 1008.9
20260505225015 23 237 12.9 25.7 0.00 0.20 0.18 29 1009.0
20260505224015 23 238 11.3 22.5 0.00 0.20 0.18 28 1009.3
20260505223035 23 255 16.1 32.2 0.00 0.20 0.18 28 1009.3
20260505222036 23 230 9.7 25.7 0.00 0.20 0.18 29 1009.4
20260505221015 23 245 11.3 20.9 0.00 0.20 0.18 30 1009.4
20260505220017 23 223 8.0 20.9 0.00 0.20 0.18 32 1009.4
20260505215015 23 252 12.9 29.0 0.00 0.20 0.18 30 1009.5
20260505214017 23 215 8.0 20.9 0.00 0.20 0.18 30 1009.9
20260505213056 23 210 11.3 30.6 0.00 0.20 0.18 31 1009.7
20260505212015 23 252 12.9 24.1 0.00 0.20 0.18 31 1009.7
20260505211036 23 212 8.0 20.9 0.00 0.20 0.18 32 1009.9
20260505210015 23 238 9.7 24.1 0.00 0.20 0.18 31 1010.0
20260505205057 24 232 11.3 29.0 0.00 0.20 0.18 31 1010.3
20260505204015 23 233 11.3 25.7 0.00 0.20 0.18 30 1010.4
20260505203015 23 227 12.9 29.0 0.00 0.20 0.18 31 1010.5
20260505202015 23 193 9.7 22.5 0.00 0.20 0.18 32 1010.6
20260505201015 23 225 8.0 17.7 0.00 0.20 0.18 34 1010.4
20260505200016 23 195 9.7 25.7 0.00 0.20 0.18 34 1010.5
20260505195035 23 230 11.3 30.6 0.00 0.20 0.18 34 1010.5
20260505194015 22 227 9.7 25.7 0.00 0.20 0.18 36 1010.5
20260505193015 21 254 14.5 30.6 0.00 0.20 0.18 40 1010.3
20260505192037 21 239 8.0 16.1 0.00 0.20 0.18 45 1010.5
20260505191015 21 263 8.0 22.5 0.00 0.20 0.18 49 1010.6
20260505190036 21 280 6.4 14.5 0.00 0.20 0.18 51 1010.9
20260505185015 20 286 6.4 16.1 0.00 0.20 0.18 52 1010.9
20260505184015 20 200 3.2 9.7 0.00 0.20 0.18 52 1011.0
20260505183015 20 244 4.8 14.5 0.00 0.20 0.18 54 1010.9
20260505182015 20 281 8.0 17.7 0.00 0.20 0.18 54 1011.2
20260505181015 20 261 4.8 14.5 0.00 0.20 0.18 55 1011.1
20260505180015 19 268 4.8 9.7 0.00 0.20 0.18 57 1011.1
20260505175056 18 287 4.8 12.9 0.00 0.20 0.18 58 1011.1
20260505174015 19 309 6.4 14.5 0.00 0.20 0.18 58 1011.2
20260505173015 18 319 3.2 11.3 0.00 0.20 0.18 58 1011.2
20260505172017 19 36 3.2 8.0 0.00 0.20 0.18 57 1011.3
20260505171016 18 312 4.8 9.7 0.00 0.20 0.18 59 1011.2
20260505170015 18 309 3.2 8.0 0.00 0.20 0.18 59 1011.1
20260505165015 18 253 1.6 9.7 0.00 0.20 0.18 63 1011.3
20260505164037 17 308 3.2 11.3 0.00 0.20 0.18 64 1011.2
20260505163016 17 282 6.4 12.9 0.00 0.20 0.18 66 1011.1
20260505162015 17 295 4.8 8.0 0.00 0.20 0.18 65 1011.3
20260505161057 18 271 6.4 12.9 0.00 0.20 0.18 64 1011.1
20260505153035 16 278 3.2 6.4 0.00 0.20 0.18 69 1010.7
20260505152035 16 261 1.6 6.4 0.00 0.20 0.18 75 1010.6
20260505151015 15 0.0 0.0 0.00 0.20 0.18 79 1010.4
20260505125036 13 58 0.0 1.6 0.00 0.20 0.18 90 1008.9
20260505124015 13 0.0 0.0 0.00 0.20 0.18 90 1008.9
20260505123015 13 77 0.0 4.8 0.00 0.20 0.18 90 1008.7
20260505122035 13 0.0 0.0 0.00 0.20 0.18 89 1009.1
20260505121016 13 84 0.0 3.2 0.00 0.20 0.18 88 1008.7
20260505120016 13 98 3.2 6.4 0.00 0.20 0.18 89 1008.3
20260505115015 13 107 4.8 12.9 0.00 0.20 0.18 89 1008.5
20260505114015 13 94 3.2 8.0 0.00 0.20 0.18 89 1008.3
20260505113015 13 96 4.8 8.0 0.00 0.20 0.18 89 1008.6
20260505112015 13 120 4.8 8.0 0.00 0.20 0.18 89 1009.0
20260505111016 13 94 4.8 6.4 0.00 0.20 0.18 89 1009.0
20260505102016 13 93 3.2 8.0 0.00 0.20 0.18 90 1009.9
20260505101015 13 82 3.2 8.0 0.00 0.20 0.18 91 1010.0
20260505100016 13 0.0 0.0 0.00 0.20 0.18 91 1010.3
20260505095015 13 94 4.8 11.3 0.00 0.20 0.18 91 1010.1
20260505094016 13 89 4.8 9.7 0.00 0.20 0.18 90 1010.6
20260505093035 13 99 3.2 6.4 0.00 0.20 0.18 90 1011.1
20260505092015 13 105 6.4 11.3 0.00 0.20 0.18 90 1011.2
20260505091015 13 92 4.8 9.7 0.03 0.20 0.18 89 1011.6
20260505090015 13 108 3.2 8.0 0.05 0.20 0.18 88 1012.0
20260505085015 14 113 1.6 4.8 0.10 0.20 0.18 88 1012.1
20260505084015 14 89 0.0 1.6 0.10 0.20 0.18 87 1012.5
20260505083015 14 61 0.0 1.6 0.13 0.20 0.18 86 1012.5
20260505082036 14 0.0 0.0 0.15 0.20 0.18 85 1012.7